XSAT

Satellite information

Favourite Embed

Satellite Type and Status

PAYLOADIN ORBIT

Key statistics

Satellite XSAT at a glance.

Uptime

5190

Days in orbit

Revolutions

≈ 14.3

Per day

Orbit

SSO

Sun Synchronous Orbit

Inclination

98.3

Latest

Satellite identification and parameters

Extended collection of information and parameters for XSAT.

Object identification

Identified? True

Debris? False

Object name: XSAT

International designator: 2011-015C

Object number (NORAD): 37389

Object ID (CCSDS): 37389

Country: SINGAPORE (SING)

Current information (Y/N): Y

RCS size: MEDIUM

Orbital parameters

Period: 101.049 minutes

Inclination: 98.3122 deg

SMA: 7186.468 km

Apoapsis: 817.544 km

Periapsis: 799.122 km

RAAN: 175.2282 deg

Eccentricy: 0.0012817

Argument of periapsis: 284.6753 deg

Mean anomaly: 75.3006 deg

Mean motion: 14.25048056 rev/day

Mean motion (dot): 0.00000086 rev/day2

B* drag term: 0.000053942 1/REarth

Two-line elements (TLE)

Creation date: July 4, 2025, 10:46 p.m.

Reference frame: TEME

Reference center: EARTH

Epoch: July 4, 2025, 7:55 p.m. UTC

TLE line 0: 0 XSAT

TLE line 1: 1 37389U 11015C 25185.83046672 .00000086 00000-0 53942-4 0 9996

TLE line 2: 2 37389 98.3122 175.2282 0012817 284.6753 75.3006 14.25048056738721

Live tracking on map

Real-time ground track for satellite XSAT.

In-orbit conjunctions

There are no conjunctions computed for XSAT, at the moment. Check back to stay up to date, as we update our databases every day.

Go to all conjunctions

Associated space launch

XSAT was lifted into orbit during the mission ‘PSLV | Resourcesat-2’, on board a PSLV space rocket.

The launch took place on April 20, 2011, 4:42 a.m. from Satish Dhawan Space Centre First Launch Pad.

For more information about the launch, click the button.

Launch to space PSLV | Resourcesat-2
PSLV | Resourcesat-2

Agency: N/A

Status: Launch Successful

Launch date: April 20, 2011, 4:42 a.m. UTC

Rocket: PSLV

Launch pad: Satish Dhawan Space Centre First Launch Pad

Location: Satish Dhawan Space Centre, India

...

Latest news about this satellite

There are no fresh news available about this satellite. Check back as we update our databases every day.


Newsletter sign-up

Weekly statistics, charts and insights to help you stay on top of the space industry.